FW1323 Weather Reports


Display with metric or nautical units.
time (UTC)temp
F
wind
direction
speed
MPH
gust
MPH
rain 1hr
in
rain 24hr
in
rain mn
in
humidity
%
barometer
mb
20260505123053 55 185 2.0 7.0 0.00 0.26 0.26 97 1005.8
20260505121549 55 160 3.0 8.0 0.01 0.26 0.26 97 1006.0
20260505120051 55 170 3.0 8.0 0.02 0.26 0.26 97 1006.3
20260505114546 55 160 3.0 7.0 0.03 0.26 0.26 97 1006.4
20260505113051 55 210 2.0 6.0 0.03 0.26 0.26 97 1006.8
20260505111544 54 173 2.0 7.0 0.03 0.25 0.25 97 1006.5
20260505101557 55 176 3.0 7.0 0.10 0.22 0.22 96 1005.7
20260505100057 55 170 2.0 5.0 0.16 0.22 0.22 95 1006.4
20260505094535 55 165 1.0 4.0 0.20 0.21 0.21 94 1006.6
20260505093033 55 241 1.0 7.0 0.18 0.18 0.18 93 1007.3
20260505091530 56 338 5.0 13.0 0.12 0.12 0.12 92 1007.6
20260505090028 57 302 5.0 11.0 0.06 0.06 0.06 91 1007.5
20260505084524 58 343 6.0 12.0 0.01 0.01 0.01 88 1007.0
20260505083023 60 320 11.0 14.0 0.00 0.00 0.00 82 1006.5
20260505081515 61 334 9.0 17.0 0.00 0.00 0.00 77 1006.0
20260505080011 63 299 2.0 6.0 0.00 0.00 0.00 73 1004.9
20260505074511 63 185 2.0 5.0 0.00 0.00 0.00 69 1004.2
20260505073019 64 301 2.0 9.0 0.00 0.00 0.00 68 1005.0
20260505071503 65 265 2.0 7.0 0.00 0.00 0.00 65 1004.7
20260505070002 65 239 4.0 7.0 0.00 0.00 0.00 64 1004.5
20260505064557 65 214 3.0 9.0 0.00 0.00 0.00 63 1004.7
20260505063106 65 224 5.0 12.0 0.00 0.00 0.00 63 1004.4
20260505061552 66 207 7.0 19.0 0.00 0.00 0.00 63 1004.2
20260505060051 66 200 7.0 22.0 0.00 0.00 0.00 62 1004.1
20260505054549 66 193 9.0 18.0 0.00 0.00 0.00 62 1004.1
20260505053047 66 237 6.0 19.0 0.00 0.00 0.00 61 1003.7
20260505051543 66 224 8.0 16.0 0.00 0.00 0.00 61 1003.3
20260505041533 67 161 8.0 14.0 0.00 0.00 0.00 60 1003.5
20260505040031 68 220 10.0 19.0 0.00 0.00 0.00 59 1004.0
20260505034530 68 222 7.0 21.0 0.00 0.00 0.00 59 1004.1
20260505033030 68 246 8.0 15.0 0.00 0.00 0.00 60 1004.3
20260505031537 67 219 6.0 12.0 0.00 0.00 0.00 61 1004.6
20260505030029 67 239 8.0 15.0 0.00 0.00 0.00 61 1004.4
20260505024528 67 222 7.0 11.0 0.00 0.00 0.00 63 1004.2
20260505023027 67 196 4.0 13.0 0.00 0.00 0.00 63 1004.0
20260505021532 67 221 5.0 14.0 0.00 0.00 0.00 64 1003.8
20260505020030 67 224 1.0 10.0 0.00 0.00 0.00 63 1003.5
20260505014525 68 180 2.0 9.0 0.00 0.00 0.00 62 1003.2
20260505013029 68 184 4.0 11.0 0.00 0.00 0.00 61 1002.9
20260505011532 69 196 4.0 12.0 0.00 0.00 0.00 60 1002.8
20260505010036 69 224 3.0 9.0 0.00 0.00 0.00 58 1002.7
20260505004521 70 180 2.0 8.0 0.00 0.00 0.00 57 1002.9
20260505003020 71 220 4.0 11.0 0.00 0.00 0.00 55 1002.9
20260505001520 71 248 7.0 18.0 0.00 0.00 0.00 55 1002.9
20260505000032 72 259 3.0 10.0 0.00 0.00 0.00 57 1003.1
20260504234518 72 214 4.0 10.0 0.00 0.00 0.00 58 1003.2
20260504233016 73 219 5.0 12.0 0.00 0.00 0.00 57 1003.4
20260504231515 73 228 6.0 12.0 0.00 0.00 0.00 56 1003.6
20260504230013 74 217 7.0 14.0 0.00 0.00 0.00 55 1003.9
20260504224511 73 210 6.0 16.0 0.00 0.00 0.00 54 1004.1
20260504223012 74 214 9.0 18.0 0.00 0.00 0.00 52 1004.2
20260504221613 74 241 5.0 17.0 0.00 0.00 0.00 52 1004.5
20260504220008 75 195 11.0 28.0 0.00 0.00 0.00 52 1004.4
20260504214505 74 207 5.0 12.0 0.00 0.00 0.00 56 1004.4
20260504213004 74 201 6.0 8.0 0.00 0.00 0.00 56 1004.4
20260504211501 73 208 2.0 10.0 0.00 0.00 0.00 56 1004.5
20260504210101 74 263 3.0 9.0 0.00 0.00 0.00 56 1005.1
20260504204604 73 220 2.0 12.0 0.00 0.00 0.00 57 1005.5
20260504203054 72 250 6.0 12.0 0.00 0.00 0.00 57 1005.7
20260504201552 71 210 11.0 19.0 0.00 0.00 0.00 58 1005.8
20260504200047 71 206 8.0 14.0 0.00 0.00 0.00 59 1006.0
20260504194549 69 264 4.0 11.0 0.00 0.00 0.00 66 1006.2
20260504193041 68 235 6.0 14.0 0.00 0.00 0.00 68 1006.3
20260504191541 67 237 6.0 12.0 0.00 0.00 0.00 72 1006.5
20260504190039 65 219 4.0 8.0 0.00 0.00 0.00 77 1006.9
20260504184538 64 175 1.0 5.0 0.00 0.00 0.00 77 1006.8
20260504183041 64 244 3.0 6.0 0.00 0.00 0.00 74 1007.2
20260504181539 65 201 3.0 14.0 0.00 0.00 0.00 72 1007.0
20260504180045 66 224 6.0 12.0 0.00 0.00 0.00 69 1007.1
20260504174536 66 261 8.0 18.0 0.00 0.00 0.00 68 1007.1
20260504173035 66 243 8.0 20.0 0.00 0.00 0.00 68 1006.7
20260504171535 67 241 9.0 19.0 0.00 0.00 0.00 66 1006.6